MDT,Max TemperatureF,Mean TemperatureF,Min TemperatureF,Max Dew PointF,MeanDew PointF,Min DewpointF,Max Humidity, Mean Humidity, Min Humidity, Max Sea Level PressureIn, Mean Sea Level PressureIn, Min Sea Level PressureIn, Max VisibilityMiles, Mean VisibilityMiles, Min VisibilityMiles, Max Wind SpeedMPH, Mean Wind SpeedMPH, Max Gust SpeedMPH,PrecipitationIn, CloudCover, Events, WindDirDegrees
2011-10-1,80,64,48,43,38,34,66,43,20,30.19,30.09,30.01,10,10,10,17,8,,0.00,0,,157
2011-10-2,79,62,46,44,40,36,71,47,21,30.15,30.08,30.01,10,10,10,21,6,25,0.00,2,,150
2011-10-3,75,60,46,45,42,39,76,51,27,30.14,30.04,29.96,10,10,10,12,6,,0.00,2,,151
2011-10-4,63,56,51,51,47,40,96,77,54,30.17,29.97,29.90,10,9,2,10,5,,0.36,7,Rain,141
2011-10-5,66,54,44,49,44,37,93,73,37,29.90,29.76,29.60,10,10,10,9,5,,0.00,5,,84
2011-10-6,55,46,36,45,36,26,86,70,39,29.91,29.66,29.45,10,10,4,22,9,33,0.09,6,Rain,175
2011-10-7,53,41,30,34,30,23,92,71,32,30.01,29.95,29.90,10,10,10,20,3,,0.00,1,,55
2011-10-8,52,42,34,34,31,27,83,69,43,30.16,30.03,29.91,10,10,10,12,4,,0.00,2,,97
2011-10-9,55,44,34,35,32,30,85,63,38,30.16,30.09,30.01,10,10,10,8,4,,0.00,3,,118
2011-10-10,63,48,35,35,31,27,82,58,28,30.11,30.01,29.90,10,10,10,10,6,,0.00,1,,133
2011-10-11,64,55,46,40,36,33,74,55,31,30.01,29.93,29.85,10,10,10,7,3,,0.00,6,Rain,111
2011-10-12,66,54,42,35,30,20,73,44,17,30.15,30.10,30.02,10,10,10,12,6,,0.00,1,,132
2011-10-13,70,53,36,33,25,16,64,39,13,30.20,30.09,29.99,10,10,7,12,7,,0.00,0,,143
2011-10-14,75,57,39,35,31,28,70,45,18,30.12,30.04,29.95,10,10,10,12,6,,0.00,0,,159
2011-10-15,81,60,41,33,30,25,67,38,14,30.15,30.03,29.94,10,10,10,10,5,,0.00,0,,151
2011-10-16,79,60,43,35,25,18,56,29,11,30.06,29.96,29.84,10,10,10,16,8,22,0.00,0,,191
2011-10-17,66,52,39,39,29,21,62,38,19,30.24,30.05,29.79,10,10,7,23,11,32,0.00,1,Rain,277
2011-10-18,60,46,32,27,24,18,75,47,20,30.36,30.28,30.23,10,10,10,10,6,,0.00,0,,138
2011-10-19,66,50,33,25,21,14,64,38,14,30.24,30.08,29.92,10,10,10,10,7,,0.00,0,,135
2011-10-20,69,50,33,27,23,21,61,39,18,30.15,30.08,30.01,10,10,3,13,6,,0.00,0,,146
2011-10-21,71,52,35,28,24,21,61,37,16,30.25,30.15,30.08,10,10,10,10,7,,0.00,0,,129
2011-10-22,69,52,35,28,25,22,67,39,19,30.26,30.18,30.12,10,10,10,12,6,,0.00,0,,151
2011-10-23,72,53,35,28,24,18,64,39,13,30.30,30.18,30.09,10,10,10,12,7,,0.00,0,,140
2011-10-24,75,54,33,23,20,17,54,30,14,30.19,30.04,29.89,10,10,10,16,8,22,0.00,0,,189
2011-10-25,59,52,43,43,34,23,93,54,35,30.03,29.93,29.85,10,10,5,22,8,32,0.01,5,Rain,151
2011-10-26,44,38,33,43,36,30,100,89,70,30.15,30.01,29.89,10,9,4,16,8,20,0.36,8,Rain-Snow-Thunderstorm,301
2011-10-27,46,40,32,33,28,23,92,69,50,30.24,30.18,30.11,10,10,10,8,2,,0.00,5,,29
2011-10-28,52,40,28,31,27,22,92,67,33,30.40,30.31,30.25,10,10,10,10,5,,0.00,0,,151
2011-10-29,55,40,27,29,26,23,85,64,30,30.31,30.24,30.12,10,10,10,7,4,,0.00,0,,148
2011-10-30,57,42,27,30,26,23,85,62,29,30.38,30.29,30.23,10,10,10,9,5,,0.00,0,,155
2011-10-31,62,44,28,31,27,24,82,58,30,30.25,30.15,30.02,10,10,10,9,6,,0.00,0,,138